FW0304 Weather Reports


Display with metric or nautical units.
time (UTC)temp
F
wind
direction
speed
MPH
gust
MPH
rain 1hr
in
rain 24hr
in
rain mn
in
humidity
%
barometer
mb
20260906221535 85 277 0.0 2.0 0.00 0.00 0.00 64 1011.3
20260906220029 83 278 0.0 2.0 0.00 0.00 0.00 66 1011.3
20260906214547 82 343 0.0 2.0 0.00 0.00 0.00 66 1011.0
20260906213006 82 352 0.0 6.0 0.00 0.00 0.00 65 1011.1
20260906211504 83 240 1.0 7.0 0.00 0.00 0.00 67 1011.5
20260906210011 84 132 2.0 8.0 0.00 0.00 0.00 69 1012.0
20260906204506 87 169 0.0 5.0 0.00 0.00 0.00 63 1011.0
20260906203007 87 9 1.0 6.0 0.00 0.00 0.00 61 1011.0
20260906201515 88 193 1.0 8.0 0.00 0.00 0.00 58 1011.3
20260906200006 94 311 2.0 13.0 0.00 0.00 0.00 47 1011.6
20260906194504 98 11 0.0 3.0 0.00 0.00 0.00 46 1010.7
20260906193011 99 339 1.0 2.0 0.00 0.00 0.00 44 1010.6
20260906191509 98 294 1.0 2.0 0.00 0.00 0.00 46 1010.4
20260906190006 98 285 0.0 2.0 0.00 0.00 0.00 45 1010.8
20260906184506 97 277 0.0 2.0 0.00 0.00 0.00 47 1011.1
20260906183008 97 312 1.0 3.0 0.00 0.00 0.00 49 1011.4
20260906181509 96 297 1.0 2.0 0.00 0.00 0.00 54 1011.8
20260906180011 96 296 0.0 2.0 0.00 0.00 0.00 54 1011.9
20260906174511 96 318 0.0 2.0 0.00 0.00 0.00 56 1012.2
20260906173008 95 91 0.0 3.0 0.00 0.00 0.00 57 1012.4
20260906171508 94 302 0.0 2.0 0.00 0.00 0.00 59 1012.6
20260906170011 94 125 1.0 2.0 0.00 0.00 0.00 59 1013.0
20260906164511 92 145 0.0 3.0 0.00 0.00 0.00 62 1013.3
20260906163008 92 268 0.0 2.0 0.00 0.00 0.00 63 1013.4
20260906161512 92 121 1.0 2.0 0.00 0.00 0.00 63 1013.7
20260906160009 91 281 0.0 2.0 0.00 0.00 0.00 64 1013.6
20260906154513 90 287 0.0 2.0 0.00 0.00 0.00 66 1013.4
20260906153028 89 231 0.0 2.0 0.00 0.00 0.00 69 1013.3
20260906151513 89 264 0.0 2.0 0.00 0.00 0.00 69 1013.3
20260906150019 87 199 0.0 4.0 0.00 0.00 0.00 72 1013.3
20260906144513 87 296 0.0 2.0 0.00 0.00 0.00 73 1013.3
20260906143018 85 220 0.0 2.0 0.00 0.00 0.00 76 1013.4
20260906141516 85 200 0.0 2.0 0.00 0.00 0.00 77 1013.5
20260906140022 84 311 0.0 0.0 0.00 0.00 0.00 80 1013.7
20260906134514 83 17 0.0 0.0 0.00 0.00 0.00 80 1014.0
20260906133024 81 13 0.0 0.0 0.00 0.00 0.00 84 1013.9
20260906131520 79 13 0.0 0.0 0.00 0.00 0.00 87 1014.1
20260906130016 77 13 0.0 0.0 0.00 0.00 0.00 90 1014.1
20260906124517 76 63 0.0 2.0 0.00 0.00 0.00 91 1014.2
20260906123029 75 94 0.0 2.0 0.00 0.00 0.00 92 1014.3
20260906121516 74 107 0.0 0.0 0.00 0.00 0.00 1014.2
20260906120005 74 107 0.0 0.0 0.00 0.00 0.00 93 1013.8
20260906114508 74 109 0.0 0.0 0.00 0.00 0.00 92 1013.3
20260906113012 74 109 0.0 0.0 0.00 0.00 0.00 92 1013.4
20260906111525 74 109 0.0 1.0 0.00 0.00 0.00 92 1013.2
20260906110021 74 112 0.0 0.0 0.00 0.00 0.00 93 1013.0
20260906104504 74 112 0.0 2.0 0.00 0.00 0.00 93 1013.1
20260906103011 74 99 0.0 0.0 0.00 0.00 0.00 93 1012.9
20260906101525 74 71 0.0 1.0 0.00 0.00 0.00 92 1012.8
20260906100020 74 55 0.0 0.0 0.00 0.00 0.00 92 1012.6
20260906094502 74 55 0.0 0.0 0.00 0.00 0.00 92 1012.3
20260906093013 74 55 0.0 0.0 0.00 0.00 0.00 92 1012.0
20260906091513 74 55 0.0 0.0 0.00 0.00 0.00 92 1012.1
20260906090036 74 55 0.0 0.0 0.00 0.00 0.00 92 1012.3
20260906084527 75 55 0.0 0.0 0.00 0.00 0.00 91 1012.4
20260906083007 75 55 0.0 0.0 0.00 0.00 0.00 91 1012.3
20260906081513 75 55 0.0 0.0 0.00 0.00 0.00 91 1012.3
20260906080015 75 55 0.0 0.0 0.00 0.00 0.00 91 1012.4
20260906074527 75 55 0.0 0.0 0.00 0.00 0.00 91 1012.3
20260906073026 75 55 0.0 0.0 0.00 0.00 0.00 90 1012.3
20260906071508 75 55 0.0 0.0 0.00 0.00 0.00 90 1012.5
20260906070014 76 55 0.0 0.0 0.00 0.00 0.00 89 1012.5
20260906064521 76 55 0.0 0.0 0.00 0.00 0.00 89 1012.5
20260906063041 76 55 0.0 0.0 0.00 0.00 0.00 88 1012.4
20260906061509 76 55 0.0 0.0 0.00 0.00 0.00 88 1012.7
20260906060014 76 55 0.0 0.0 0.00 0.00 0.00 88 1012.6
20260906054518 77 55 0.0 0.0 0.00 0.00 0.00 87 1012.7
20260906053027 77 55 0.0 0.0 0.00 0.00 0.00 87 1012.8
20260906051549 77 55 0.0 0.0 0.00 0.00 0.00 86 1012.7
20260906050013 77 55 0.0 0.0 0.00 0.00 0.00 86 1012.7
20260906044516 78 55 0.0 2.0 0.00 0.00 0.00 85 1012.9
20260906043026 78 55 0.0 0.0 0.00 0.00 0.00 84 1013.0
20260906041532 79 55 0.0 0.0 0.00 0.00 0.00 83 1012.8
20260906040037 79 55 0.0 0.0 0.00 0.00 0.00 82 1012.8
20260906034515 79 55 0.0 0.0 0.00 0.00 0.00 81 1012.8
20260906033023 80 55 0.0 0.0 0.00 0.00 0.00 80 1012.9
20260906031537 80 55 0.0 0.0 0.00 0.00 0.00 79 1012.9
20260906030006 81 55 0.0 0.0 0.00 0.00 0.00 78 1012.9
20260906024511 81 55 0.0 0.0 0.00 0.00 0.00 77 1012.7
20260906023017 82 55 0.0 0.0 0.00 0.00 0.00 75 1012.8
20260906021527 83 55 0.0 0.0 0.00 0.00 0.00 74 1012.5
20260906020009 83 55 0.0 0.0 0.00 0.00 0.00 72 1012.2
20260906014520 84 55 0.0 2.0 0.00 0.00 0.00 70 1011.9
20260906013015 84 117 0.0 0.0 0.00 0.00 0.00 68 1011.8
20260906011525 85 117 0.0 0.0 0.00 0.00 0.00 66 1011.8
20260906010031 85 113 0.0 0.0 0.00 0.00 0.00 64 1011.7
20260906004511 86 115 0.0 0.0 0.00 0.00 0.00 62 1011.4
20260906003013 87 150 0.0 2.0 0.00 0.00 0.00 60 1011.3
20260906001522 88 68 0.0 3.0 0.00 0.00 0.00 59 1011.3
20260906000026 89 124 0.0 3.0 0.00 0.00 0.00 60 1011.3
20260905234528 90 182 0.0 2.0 0.00 0.00 0.00 60 1011.4
20260905233011 91 167 0.0 3.0 0.00 0.00 0.00 59 1011.1
20260905231523 91 195 0.0 4.0 0.00 0.00 0.00 59 1011.0
20260905230030 92 133 0.0 3.0 0.00 0.00 0.00 59 1010.9
20260905224528 92 133 1.0 3.0 0.00 0.00 0.00 58 1011.0
20260905223012 93 180 0.0 4.0 0.00 0.00 0.00 58 1010.9